Location: Hyderabad
(17.3833°N, 78.4667°E)
Time: 05:16:48
(UTC+05:30)

Daily predictions for brighter satellites

Satellite Brightness Start Highest point End
(mag) Time Altitude Azimuth Time Altitude Azimuth Time Altitude Azimuth
ADEOS Rocket 3.7 03:35:31 10° NNE 03:41:48 49° E 03:42:47 45° SE
Cosmos 2333 Rocket 4.1 03:46:45 20° SSE 03:46:45 20° SSE 03:48:24 10° SSE
ADEOS II 3.8 03:40:22 10° NE 03:44:55 30° E 03:48:55 12° SSE
Okean-O 4.5 03:48:08 10° NE 03:51:56 28° E 03:52:15 27° ESE
ATLAS 5 CENTAUR R/B 3.3 03:52:51 22° N 03:56:47 49° ENE 04:03:07 10° SE
Cosmos 2237 Rocket 2.7 04:02:31 51° SSE 04:02:31 51° SSE 04:06:39 10° SSE
GPS 2-14 Rocket1 4.2 04:11:00 37° E 04:11:00 37° E 04:13:37 10° E
Cosmos 1000 Rocket 4.3 04:10:11 75° SW 04:10:39 80° W 04:16:59 10° N
Cosmos 1980 4.4 04:17:38 39° S 04:17:38 39° S 04:21:12 10° S
Cosmos 1602 Rocket 4.1 04:18:16 22° SSE 04:20:57 58° E 04:25:17 10° NNE
SL-16 R/B 3.3 04:17:20 10° N 04:22:43 44° ENE 04:28:04 10° SE
Meteor 2-9 Rocket 4.3 04:20:14 10° N 04:26:00 83° E 04:31:52 10° S
Cosmos 1515 4.2 04:26:57 47° SE 04:27:43 59° E 04:31:29 10° NNE
FALCON 9 R/B 3.6 04:30:18 30° NW 04:32:44 39° N 04:48:56 10° ENE
Cosmos 2173 Rocket 3.8 04:27:41 10° N 04:33:49 88° W 04:40:02 10° S
Cosmos 2123 Rocket 4.0 04:28:10 10° S 04:34:21 84° E 04:40:31 10° N
Meteor 2-15 4.3 04:29:03 10° SSW 04:35:02 65° W 04:41:01 10° N
Cosmos 1125 Rocket 4.2 04:30:22 10° S 04:35:24 54° ESE 04:40:26 10° NNE
Meteor 1-31 Rocket 3.7 04:32:11 10° NNE 04:36:00 50° E 04:39:50 10° S
Cosmos 1340 4.2 04:34:18 10° SSE 04:37:47 36° E 04:41:16 10° NNE
Cosmos 1459 Rocket 3.9 04:32:46 10° N 04:39:04 76° W 04:45:17 10° S
Cosmos 2098 Rocket 4.0 04:39:24 10° N 04:44:18 68° E 04:50:33 10° S
Cosmos 2228 3.0 04:41:44 10° N 04:46:05 85° E 04:50:23 10° S
CZ-4B R/B 3.8 04:44:03 10° NNE 04:47:46 71° E 04:51:24 10° S
GPS 2-17 Rocket1 2.8 04:47:03 52° W 04:48:04 88° NNW 04:52:25 10° ENE
CZ-3B DEB 4.3 04:43:52 22° SW 04:50:18 70° NW 05:15:41 10° NNE
Aureole 2 Rocket 2.0 04:57:10 10° N 05:00:12 79° ENE 05:03:02 10° SSE
Meteor PRIRODA 4.3 04:56:51 10° N 05:00:00 33° WNW 05:00:00 33° WNW
Cosmos 2263 Rocket 2.5 04:57:04 10° S 05:02:35 67° ESE 05:08:05 10° NNE
Hubble Space Telescope 1.1 05:03:24 30° W 05:05:02 48° SSW 05:09:02 10° SE
Star 63D 3.5 05:05:47 29° WNW 05:06:59 75° NNE 05:11:46 10° ESE
NOAA 6 4.0 05:04:21 10° N 05:09:31 79° WNW 05:14:41 10° SSW
USA 215 3.3 05:03:08 10° SSE 05:09:34 59° SW 05:15:59 10° NW
Radarsat Rocket 3.9 05:07:02 10° NNE 05:13:13 86° WNW 05:19:01 10° SSW
USA 116 4.3 05:09:16 10° S 05:14:31 68° WSW 05:19:26 10° NNW
Cosmos 2058 Rocket 4.3 05:17:30 10° NW 05:20:42 20° W 05:23:53 10° SW
Cosmos 1825 Rocket 3.5 05:16:28 10° S 05:20:53 85° W 05:25:16 10° N
Palapa 6 Rocket 3.6 05:18:04 17° W 05:21:27 44° SSW 05:25:28 10° SE
ADEOS II 3.3 05:20:39 10° NNW 05:24:20 20° WNW 05:28:02 10° WSW
Okean-O 4.3 05:25:42 10° NW 05:28:06 14° WNW 05:29:50 12° W
SL-24 R/B 3.8 05:25:14 10° N 05:28:55 49° WNW 05:32:27 10° SSW
Intelsat 3F5 C 4.1 05:28:15 11° SW 05:30:55 59° SSE 05:33:41 10° ENE
USA 129 1.5 05:28:56 10° S 05:30:58 57° W 05:32:52 10° NNW
GPS 2-18 Rocket1 3.6 05:30:30 11° WNW 05:34:12 53° N 05:38:03 10° E
CZ-4 R/B 4.0 05:31:30 10° NE 05:34:55 26° E 05:38:23 10° SSE
Cosmos 2233 Rocket 4.1 05:29:14 10° N 05:35:27 84° E 05:41:37 10° S
CENTAUR R/B 3.4 05:28:05 10° NNW 05:36:21 80° ENE 05:44:39 10° SSE
GPS 2-15 Rocket1 3.1 05:33:53 10° W 05:38:30 89° NNE 05:43:14 10° E
CZ-3C R/B 3.4 05:37:01 10° SSW 05:40:43 33° SE 05:56:23 10° E
ATLAS 5 CENTAUR R/B 3.8 05:36:49 10° WNW 05:41:14 19° WSW 05:45:43 10° SSW
OTV 4 0.1 05:39:00 10° WNW 05:41:42 75° SW 05:44:24 10° SE
